Погода в Верхнем Фиагдоне

Россия / Республика Северная Осетия — Алания     42°50′03″N   44°18′25″E
темп.,
°C
ветер,
м/с
пор.,
м/с
влажн.,
%
обл.,
%
осадки,
мм/ч
давл.,
гПа
погр.,
м
5 марта, пт
пт500:00−13ю55530 0.0 102549
03:00−13ю44440 0.0 102334
06:00−12ю12330 0.0 102227
09:00−5ссв12460 0.0 1020174
12:00−4ссз11470 0.0 1018456
15:00−3зсз11610 0.0 1017437
18:00−10ю23790 0.0 102029
21:00−10ю33640 0.0 102235
6 марта, сб
сб600:00−10ю44380 0.0 102238
03:00−10ю44290 0.0 102346
06:00−10ю442757 0.0 102244
09:00−5ю554641 0.0 1020165
12:00−3ююз78500 0.0 1017438
15:00−4ююз8105233 0.0 1015479
18:00−8ююз795795 0.0 1016142
21:00−10ююз785788 0.0 1017123
7 марта, вс
вс700:00−10ююз7861100 0.0 1016133
03:00−11ююз6679100 0.0 1017105
06:00−13ю239549 0.3 102050
09:00−9юз349464 0.6 1021256
12:00−8зюз468881 0.6 1020657
15:00−8юз468479 1.0 1021634
18:00−12ююз459472 0.1 1023113
21:00−15ю449165 0.2 102457
8 марта, пн
пн800:00−14ю558544 0.0 102462
03:00−14ю558122 0.0 102454
06:00−14ю558417 0.0 102358
09:00−10ю678526 0.0 1022378
12:00−7ююз568142 0.1 1018497
15:00−7ююз458439 0.1 1016572
18:00−12ююз229681 0.1 101733
21:00−13ю338985 0.2 101834
9 марта, вт
вт900:00−14ю228873 0.0 101829
03:00−16ю229052 0.1 101828
06:00−16ююз1289100 0.0 101925
09:00−11юз238065 0.0 1018271
12:00−10юз557932 0.1 1016753
15:00−10юз457744 0.1 1016771
18:00−15ююз558940 0.0 1018101
21:00−17ююз568449 0.1 1022119